TimeCST,TemperatureF,Dew PointF,Humidity,Sea Level PressureIn,VisibilityMPH,Wind Direction,Wind SpeedMPH,Gust SpeedMPH,PrecipitationIn,Events,Conditions,WindDirDegrees,DateUTC
12:53 AM,33.1,24.1,70,29.87,10.0,NW,15.0,-,N/A,,Overcast,310,2012-12-09 06:53:00
1:26 AM,33.8,24.8,70,29.83,10.0,NW,16.1,-,N/A,,Mostly Cloudy,310,2012-12-09 07:26:00
1:51 AM,32.0,24.8,75,29.84,10.0,NW,16.1,26.5,0.00,Rain,Light Freezing Rain,320,2012-12-09 07:51:00
1:53 AM,32.0,24.1,73,29.89,10.0,NW,13.8,26.5,0.00,Rain,Light Freezing Rain,320,2012-12-09 07:53:00
2:19 AM,32.0,23.0,69,29.85,10.0,NNW,20.7,-,0.00,,Overcast,330,2012-12-09 08:19:00
2:53 AM,26.1,19.0,75,29.92,10.0,NNW,18.4,28.8,0.00,,Overcast,330,2012-12-09 08:53:00
3:09 AM,24.8,17.6,74,29.88,10.0,NNW,16.1,-,N/A,,Scattered Clouds,340,2012-12-09 09:09:00
3:53 AM,21.9,14.0,72,29.97,10.0,NW,23.0,31.1,N/A,,Clear,310,2012-12-09 09:53:00
4:53 AM,17.1,7.0,65,30.02,10.0,NW,27.6,38.0,N/A,,Clear,310,2012-12-09 10:53:00
5:53 AM,14.0,5.0,67,30.04,10.0,NW,26.5,33.4,N/A,,Clear,320,2012-12-09 11:53:00
6:16 AM,14.0,5.0,67,29.98,9.0,NW,25.3,31.1,0.00,Snow,Light Snow,310,2012-12-09 12:16:00
6:53 AM,12.9,3.0,65,30.07,10.0,NNW,32.2,40.3,0.00,,Overcast,330,2012-12-09 12:53:00
7:25 AM,12.2,1.4,62,29.98,10.0,NNW,34.5,48.3,N/A,,Scattered Clouds,330,2012-12-09 13:25:00
7:51 AM,10.4,1.4,67,30.01,10.0,NW,31.1,41.4,N/A,,Mostly Cloudy,320,2012-12-09 13:51:00
7:53 AM,10.9,1.9,67,30.11,10.0,NNW,27.6,36.8,N/A,,Mostly Cloudy,330,2012-12-09 13:53:00
8:48 AM,10.4,1.4,67,30.05,10.0,NW,26.5,35.7,N/A,,Scattered Clouds,320,2012-12-09 14:48:00
8:53 AM,10.0,1.0,67,30.15,10.0,NNW,28.8,35.7,N/A,,Scattered Clouds,330,2012-12-09 14:53:00
9:53 AM,12.0,1.0,61,30.17,10.0,NW,31.1,41.4,N/A,,Clear,320,2012-12-09 15:53:00
10:53 AM,14.0,1.9,59,30.17,10.0,NNW,26.5,39.1,N/A,,Clear,330,2012-12-09 16:53:00
11:25 AM,15.8,3.2,58,30.10,10.0,NNW,29.9,38.0,N/A,,Mostly Cloudy,330,2012-12-09 17:25:00
11:53 AM,15.1,1.9,56,30.19,10.0,NNW,29.9,43.7,N/A,,Mostly Cloudy,330,2012-12-09 17:53:00
12:35 PM,15.8,1.4,53,30.09,10.0,NNW,33.4,42.6,N/A,,Scattered Clouds,340,2012-12-09 18:35:00
12:53 PM,16.0,1.9,54,30.17,10.0,NNW,32.2,44.9,N/A,,Partly Cloudy,330,2012-12-09 18:53:00
1:10 PM,17.6,3.2,53,30.07,10.0,NNW,26.5,42.6,0.00,,Mostly Cloudy,330,2012-12-09 19:10:00
1:53 PM,15.1,3.0,59,30.19,10.0,NNW,28.8,40.3,0.00,Rain,Light Freezing Rain,330,2012-12-09 19:53:00
2:25 PM,15.8,3.2,58,30.10,10.0,NNW,23.0,35.7,0.00,Snow,Light Snow,330,2012-12-09 20:25:00
2:53 PM,15.1,3.0,59,30.22,9.0,NNW,28.8,41.4,0.00,Rain,Light Freezing Rain,340,2012-12-09 20:53:00
3:17 PM,15.8,3.2,58,30.12,10.0,NNW,26.5,40.3,0.00,Rain,Light Freezing Rain,330,2012-12-09 21:17:00
3:27 PM,15.8,3.2,58,30.13,10.0,NNW,23.0,34.5,0.00,,Overcast,330,2012-12-09 21:27:00
3:53 PM,15.1,3.9,61,30.26,9.0,NNW,23.0,33.4,0.00,Snow,Light Snow,340,2012-12-09 21:53:00
4:53 PM,12.9,3.0,65,30.31,10.0,NNW,21.9,31.1,0.00,,Overcast,340,2012-12-09 22:53:00
5:53 PM,10.9,-0.9,59,30.32,10.0,NNW,23.0,36.8,N/A,,Overcast,340,2012-12-09 23:53:00
6:53 PM,9.0,-0.0,67,30.34,10.0,NNW,27.6,34.5,N/A,,Clear,340,2012-12-10 00:53:00
7:53 PM,8.1,-0.0,70,30.35,10.0,NNW,24.2,29.9,N/A,,Clear,340,2012-12-10 01:53:00
8:53 PM,7.0,-0.0,73,30.36,10.0,NNW,16.1,-,N/A,,Clear,330,2012-12-10 02:53:00
9:53 PM,5.0,-0.0,80,30.35,10.0,NW,6.9,-,N/A,,Clear,310,2012-12-10 03:53:00
10:53 PM,3.9,-0.9,80,30.33,10.0,NW,9.2,-,N/A,,Clear,310,2012-12-10 04:53:00
11:53 PM,3.9,-0.9,80,30.31,10.0,NW,11.5,-,N/A,,Clear,310,2012-12-10 05:53:00